ONEWEB-0166 (48065 NORAD) Tracking and Keplerian Element Data

This shows tracking and keplerian element data for the satellite.

Feedback or suggestion? Click here.




ElementValue
Catalog48065
NameONEWEB-0166
Epoch Orbit194
Epoch Day173.91668981
Epoch Year2021
RAAN322.3907
Inclination87.8288
Eccentricity0.000946
Argument of Perigee327.5905
Mean Anonmoly90.9399
Mean Motion13.80852258
Decay Rate1.5E-07
L11 48065U 21025Z 21173.91668981 .00000015 00000-0 00000-0 0 9991
L22 48065 87.8288 322.3907 0009460 327.5905 90.9399 13.80852258 1947

Live tracking and technical data element details for ONEWEB-0166 (NORAD 48065). ONEWEB-0166 can be tracked NOW for your location showing map with azimuth and elevation plus other details from your city location.

Track the satellite on the map from your city or location and see movement details for azimuth, elevation, latitude, longitude, range, height, and movement on the map or in text.







IsCatalogInMostPopularTable: catalog: 48065, numindb: 42
Update: records affected: 1



GetName: 48065 ONEWEB-0166

Hit Count: updated at: Thu, 24 Jun 2021 04:04:12 GMT